Zurück zum Katalog

NOAA 17 DEB

AktivPO
NORAD 48183·DEBRIS·🇺🇸 United States

Gestartet Jun 24, 2002 von Vandenberg Space Force Base

Loading…

Nächste Überflüge (nächste 24 Stunden)

TLE

AktuellSource: Space-Track

Epoche: Sep 13, 2026, 05:56 UTC

1 48183U 02032Y   26256.24728198  .00004989  00000-0  10417-2 0  9998
2 48183  98.7822 264.4883 0007726 261.5351  98.4972 14.60342888286708

Verfolge NOAA 17 DEB in Echtzeit mit AllMySat

Download on the App Store